Content
SEND FEEDBACK

Daily
Averages
Monthly
Summary
Ethiopia

ADDIS ABABA, ETHIOPIA


Home > Africa > Ethiopia
Elevation: 7724 feet     Latitude: 08 59N     Longitude: 038 48E

WEATHER
 
SELECT A DAY
Number of Records: 46,757;   Date Range: 7/1/96 - 7/30/14
 
SHARE

PRINT THIS DATA

[ ← Previous Day ]
WEATHER ALMANAC - JANUARY 31, 2013
[ Next Day → ]
[ °C ]   °F
Weather ElementAverageHighLow
Temperature67 °F77 °F (3:00 pm)55.4 °F (7:00 am)
Dewpoint44.3 °F51.8 °F (6:00 pm)35.6 °F (3:00 am)
Humidity42.2 %59 % (11:00 pm)26 % (3:00 pm)
Barometer30.16 in30.33 in (9:00 am)29.59 in (3:00 pm)
Wind Speed6.4 mph11.5 mph (11:00 am)
Weather ElementAverage
Visibility9.1 mi
Wind DirectionSSE (163.7 °)

Weather ElementTotal
Precipitation---
Cooling Degree Days1.2 (Base 65)
Growing Degree Days16.2 (Base 50)
Averaged from 27 records on January 31, 2013
WEATHER CONDITIONS BREAKOUT
WIND DIRECTION BREAKOUT
WEATHER BY HOUR - JANUARY 31, 2013
[ °C ]   °F
Local TimeTemperatureDewpointHumidityBarometerVisibilityWind DirectionWind SpeedGust SpeedPrecipitationEventsConditions
1:00 AM62.6 °F42.8 °F48 %30.27 inESE (120°)6.9 mphClear
2:00 AM60.8 °F41.0 °F48 %30.24 inEast (90°)8.1 mphClear
3:00 AM59.0 °F36.0 °F29 %29.90 in19.0 miNE (40°)4.5 mph
3:00 AM59.0 °F35.6 °F42 %30.24 inNE (40°)4.6 mph
4:00 AM59.0 °F37.4 °F45 %30.24 in6.2 miNE (50°)2.3 mphPartly Cloudy
5:00 AM57.2 °F37.4 °F48 %30.24 in6.2 miNNW (340°)2.3 mphPartly Cloudy
6:00 AM57.2 °F37.4 °F48 %30.24 in6.2 miNW (310°)4.6 mphPartly Cloudy
6:00 AM56.0 °F38.0 °F38 %29.94 in19.0 miNW (310°)4.5 mphScattered Clouds
7:00 AM55.4 °F37.4 °F51 %30.27 in6.2 miNW (310°)6.9 mphPartly Cloudy
8:00 AM57.2 °F39.2 °F51 %30.30 in6.2 miNNW (330°)4.6 mphPartly Cloudy
9:00 AM63.0 °F41.0 °F32 %29.92 in19.0 miSW (230°)2.2 mph
9:00 AM66.2 °F44.6 °F46 %30.33 inSE (140°)6.9 mph
11:00 AM71.6 °F46.4 °F41 %30.30 in6.2 miSouth (170°)11.5 mphPartly Cloudy
12:00 PM73.4 °F46.4 °F38 %30.27 in6.2 miSouth (190°)9.2 mphPartly Cloudy
1:00 PM73.4 °F46.4 °F38 %30.24 in6.2 miWSW (250°)4.6 mphScattered Clouds
2:00 PM75.2 °F48.2 °F38 %30.21 in6.2 miWSW (250°)4.6 mphMostly Cloudy
3:00 PM76.0 °F48.0 °F26 %29.59 in19.0 miSE (130°)4.5 mphMostly Cloudy
3:00 PM77.0 °F48.2 °F36 %30.18 in6.2 miSE (130°)6.9 mphMostly Cloudy
4:00 PM77.0 °F50.0 °F39 %30.18 in6.2 miSSE (160°)6.9 mphScattered Clouds
5:00 PM77.0 °F50.0 °F39 %30.18 in6.2 miESE (120°)11.5 mphScattered Clouds
6:00 PM77.0 °F51.8 °F41 %30.18 in6.2 miSSE (160°)6.9 mphScattered Clouds
6:00 PM76.0 °F51.0 °F31 %29.59 in19.0 miSSE (160°)6.7 mphPartly Cloudy
7:00 PM73.4 °F50.0 °F44 %30.21 in6.2 miSE (140°)9.2 mphPartly Cloudy
8:00 PM69.8 °F48.2 °F46 %30.24 in6.2 miENE (60°)6.9 mphPartly Cloudy
9:00 PM68.0 °F48.2 °F49 %30.27 in6.2 miENE (70°)9.2 mphPartly Cloudy
10:00 PM66.2 °F46.4 °F49 %30.27 in6.2 miNE (50°)9.2 mph
11:00 PM64.4 °F50.0 °F59 %30.27 inENE (70°)6.9 mph
Hourly data recorded from HAAB, located miles away from Addis Ababa, Ethiopia







STORIES FROM OUR PARTNERS